SCP
0 0 0 0 0 0 0 0 0 0 0 0 0 0 0 0 0 0 0 0 0 0 0 0 0 0 0 0 0 0 0 0 0 0 0 0 0 0 0 0 0 0 0 0
0 0 0 0 0 0 0 0 0 0 0 0 0 0 0 0 0 0 0 0 0 0 0 0 0 0 0 0 0 0 0 0 0 0 0 0 0 0 0 0 0 0 0 0
0 0 0 0 0 0 0 0 0 0 0 0 0 0 0 0 0 0 0 0 0 0 0 0 0 0 0 0 0 0 0 0 0 0 0 0 0 0 0 0 0 0 0 0
0 0 0 0 0 0 0 0 0 0 0 0 0 0 0 0 0 0 0 0 0 0 0 0 0 0 0 0 0 0 0 0 0 0 0 0 0 0 0 0 0 0 0 0
0 0 0 0 0 0 0 0 0 0 0 0 0 0 0 0 0 0 0 0 0 0 0 0 0 0 0 0 0 0 0 0 0 0 0 0 0 0 0 0 0 0 0 0
0 0 0 0 0 0 0 0 0 0 0 0 0 0 0 0 0 0 0 0 0 0 0 0 0 0 0 0 0 0 0 0 0 0 0 0 0 0 0 0 0 0 0 0
0 0 0 0 0 0 0 0 0 0 0 0 0 0 0 0 0 0 0 0 0 0 0 0 0 0 0 0 0 0 0 0 0 0 0 0 0 0 0 0 0 0 0 0
0 0 0 0 0 0 0 0 0 0 0 0 0 0 0 0 0 0 0 0 0 0 0 0 0 0 0 0 0 0 0 0 0 0 0 0 0 0 0 0 0 0 0 0
0 0 0 0 0 0 0 0 0 0 0 0 0 0 0 0 0 0 0 0 0 0 0 0 0 0 0 0 0 0 0 0 0 0 0 0 0 0 0 0 0 0 0 0
0 0 0 0 0 0 0 0 0 0 0 0 0 0 0 0 0 0 0 0 0 0 0 0 0 0 0 0 0 0 0 0 0 0 0 0 0 0 0 0 0 0 0 0
0 0 0 0 0 0 0 0 0 0 0 0 0 0 0 0 0 0 0 0 0 0 0 0 0 0 0 0 0 0 0 0 0 0 0 0 0 0 0 0 0 0 0 0
0 0 0 0 0 0 0 0 0 0 0 0 0 0 0 0 0 0 0 0 0 0 0 0 0 0 0 0 0 0 0 0 0 0 0 0 0 0 0 0 0 0 0 0
0 0 0 0 0 0 0 0 0 0 0 0 0 0 0 0 0 0 0 0 0 0 0 0 0 0 0 0 0 0 0 0 0 0 0 0 0 0 0 0 0 0 0 0
0 0 0 0 0 0 0 0 0 0 0 0 0 0 0 0 0 0 0 0 0 0 0 0 0 0 0 0 0 0 0 0 0 0 0 0 0 0 0 0 0 0 0 0
0 0 0 0 0 0 0 0 0 0 0 0 0 0 0 0 0 0 0 0 0 0 0 0 0 0 0 0 0 0 0 0 0 0 0 0 0 0 0 0 0 0 0 0
0 0 0 0 0 0 0 0 0 0 0 0 0 0 0 0 0 0 0 0 0 0 0 0 0 0 0 0 0 0 0 0 0 0 0 0 0 0 0 0 0 0 0 0
0 0 0 0 0 0 0 0 0 0 0 0 0 0 0 0 0 0 0 0 0 0 0 0 0 0 0 0 0 0 0 0 0 0 0 0 0 0 0 0 0 0 0 0
0 0 0 0 0 0 0 0 0 0 0 0 0 0 0 0 0 0 0 0 0 0 0 0 0 0 0 0 0 0 0 0 0 0 0 0 0 0 0 0 0 0 0 0
0 0 0 0 0 0 0 0 0 0 0 0 0 0 0 0 0 0 0 0 0 0 0 0 0 0 0 0 0 0 0 0 0 0 0 0 0 0 0 0 0 0 0 0
0 0 0 0 0 0 0 0 0 0 0 0 0 0 0 0 0 0 0 0 0 0 0 0 0 0 0 0 0 0 0 0 0 0 0 0 0 0 0 0 0 0 0 0
0 0 0 0 0 0 0 0 0 0 0 0 0 0 0 0 0 0 0 0 0 0 0 0 0 0 0 0 0 0 0 0 0 0 0 0 0 0 0 0 0 0 0 0
0 0 0 0 0 0 0 0 0 0 0 0 0 0 0 0 0 0 0 0 0 0 0 0 0 0 0 0 0 0 0 0 0 0 0 0 0 0 0 0 0 0 0 0
0 0 0 0 0 0 0 0 0 0 0 0 0 0 0 0 0 0 0 0 0 0 0 0 0 0 0 0 0 0 0 0 0 0 0 0 0 0 0 0 0 0 0 0
0 0 0 0 0 0 0 0 0 0 0 0 0 0 0 0 0 0 0 0 0 0 0 0 0 0 0 0 0 0 0 0 0 0 0 0 0 0 0 0 0 0 0 0
0 0 0 0 0 0 0 0 0 0 0 0 0 0 0 0 0 0 0 0 0 0 0 0 0 0 0 0 0 0 0 0 0 0 0 0 0 0 0 0 0 0 0 0
0 0 0 0 0 0 0 0 -0 -0 0 0 0 0 0 0 0 0 0 0 0 0 0 0 0 0 0 0 0 0 0 0 0 0 0 0 0 0 0 0 0 0 0 0
Wind_Speed
3 5 5 5 4 3 3 4 4 3 3 4 4 4 4 5 5 6 5 5 5 6 5 4 4 4 4 3 3 3 4 3 3 2 1 1 1 1 1 1 2 2 1 1
6 5 3 3 4 5 6 5 4 4 4 4 4 6 5 5 7 6 6 5 6 6 5 5 4 4 4 4 4 4 4 3 3 2 1 1 1 1 1 1 1 1 2 1
5 2 4 5 6 7 7 6 5 4 4 6 5 7 7 6 7 6 6 6 6 6 7 6 6 5 5 5 5 4 4 4 3 3 2 2 2 1 1 0 0 1 1 1
3 2 5 6 6 7 6 4 5 6 7 4 6 5 5 7 7 7 7 6 6 6 6 6 6 6 6 5 5 4 4 4 3 3 3 3 1 1 0 1 0 1 1 1
2 3 5 6 5 6 3 3 5 7 7 7 7 7 3 6 6 7 7 7 6 5 5 6 5 5 5 5 4 4 4 4 4 3 3 3 2 1 0 0 1 1 1 1
2 2 3 3 3 4 4 5 5 6 7 9 6 8 4 4 5 5 6 7 6 6 5 5 4 4 5 5 4 4 4 4 4 3 4 3 2 2 1 1 1 1 1 1
4 4 2 2 4 6 7 7 5 6 6 5 3 6 4 1 3 4 4 5 6 6 5 5 5 5 5 5 5 5 5 4 4 4 4 4 3 3 3 2 2 2 2 1
5 5 3 3 5 5 8 9 6 5 5 3 5 7 2 1 2 4 4 4 5 6 6 6 6 5 5 5 5 5 5 5 4 4 4 4 3 2 2 2 2 2 2 2
5 3 2 2 3 5 6 8 6 7 6 7 5 5 4 3 4 3 3 4 5 6 6 6 6 5 5 5 5 6 5 5 4 4 4 4 3 3 2 2 2 2 2 3
5 5 2 2 3 1 4 4 5 6 6 7 6 7 4 5 5 4 5 5 4 5 5 5 5 5 4 4 4 4 5 5 4 4 3 3 3 3 3 2 2 2 2 3
6 7 4 4 5 5 4 5 6 6 6 7 6 2 0 3 4 5 5 5 5 5 5 5 5 5 4 4 4 4 4 4 4 4 3 3 3 3 3 2 3 3 3 3
5 6 7 6 2 3 6 7 7 7 7 7 7 3 2 2 3 4 4 3 4 4 4 4 4 5 4 4 4 4 4 4 3 3 3 3 2 2 2 2 3 3 3 3
4 6 7 6 6 4 5 6 8 8 8 8 8 4 3 1 2 3 3 3 3 4 5 5 5 4 4 4 4 4 3 3 3 3 3 3 2 2 2 2 2 2 2 2
5 7 8 8 5 3 6 6 7 9 8 9 11 10 5 4 4 3 3 3 3 5 5 5 5 4 4 4 4 4 4 3 3 3 3 2 2 2 1 1 1 1 2 2
5 7 8 9 7 6 9 9 9 11 12 12 11 10 9 7 6 5 4 3 3 4 5 6 5 5 5 4 4 4 3 3 3 3 2 2 1 0 0 0 1 1 2 3
4 7 7 9 8 8 10 11 11 12 12 13 13 12 7 6 5 4 4 3 4 4 4 5 5 5 5 5 5 4 4 3 3 3 2 1 1 0 0 1 1 1 2 3
4 6 7 9 6 8 12 11 12 11 10 11 12 10 6 6 5 5 5 4 4 4 4 5 5 5 5 5 5 5 4 3 3 2 1 1 1 1 1 1 1 2 2 3
6 6 5 7 7 11 4 2 7 10 11 10 10 8 7 6 6 5 4 4 4 3 3 4 4 4 4 4 4 4 4 3 3 2 1 1 1 1 1 1 2 2 2 2
7 7 6 6 9 10 6 3 4 8 9 7 8 7 5 4 4 3 1 2 3 3 3 3 3 4 4 4 4 4 4 3 3 2 1 1 1 1 1 1 2 2 2 3
5 7 7 7 9 9 3 1 2 6 7 2 4 5 4 3 4 2 1 2 2 1 1 1 2 3 4 4 4 4 4 3 3 2 1 1 1 1 1 2 2 2 2 2
5 7 9 10 11 8 2 1 3 6 3 2 2 3 4 5 4 3 2 1 1 1 1 2 2 2 3 4 4 4 4 3 2 1 1 1 1 1 1 1 1 2 2 3
7 6 8 8 10 8 2 3 5 4 4 2 2 3 4 4 4 3 2 1 1 1 1 2 2 2 2 3 4 4 3 2 2 2 1 1 1 0 1 1 1 2 2 3
7 6 4 6 5 3 2 4 3 4 5 4 4 3 3 4 4 3 2 2 2 2 2 2 2 2 2 3 4 4 3 2 2 2 1 1 1 0 1 1 1 2 2 2
4 4 6 8 7 6 5 5 5 5 6 6 5 5 5 5 5 4 3 2 2 2 2 2 3 3 3 3 3 3 3 3 3 2 1 1 1 1 1 1 2 2 2 2
6 4 6 10 8 7 6 5 5 5 6 6 5 5 6 6 5 4 4 3 3 2 3 3 4 3 3 3 3 3 3 3 3 2 1 1 1 1 2 2 2 3 2 2
6 8 8 8 6 7 8 7 6 6 6 6 6 6 6 5 5 5 4 3 3 3 3 3 4 3 3 3 3 3 3 3 3 2 2 1 1 2 1 2 2 1 3 3
Wind_Direction
180 196 192 197 223 238 212 219 219 197 175 214 220 234 225 196 209 219 218 216 211 205 191 176 170 169 166 161 163 148 140 141 136 136 142 123 116 104 87 58 32 24 13 20
189 197 203 197 196 202 211 218 220 192 181 220 225 244 233 211 215 221 226 223 221 209 193 175 176 173 177 174 176 167 158 152 148 153 147 134 125 119 84 71 53 21 12 6
215 167 172 187 193 209 221 237 235 227 197 213 234 237 219 207 214 217 225 226 223 213 202 188 184 184 184 188 189 183 170 161 160 157 136 128 122 113 114 118 88 359 358 359
223 196 196 206 215 235 232 238 238 222 229 224 234 257 210 204 205 218 222 220 221 213 206 198 190 186 191 194 193 194 182 169 161 161 157 159 165 180 265 280 220 256 292 323
199 205 219 226 234 241 248 211 222 233 245 248 224 254 220 190 216 223 216 211 211 207 200 199 196 193 192 189 190 196 187 175 166 176 174 196 197 211 222 255 281 268 264 275
234 229 259 265 242 220 188 196 205 220 237 245 231 245 245 197 218 217 209 209 206 201 196 193 182 183 183 178 181 186 186 183 177 187 194 205 200 206 210 247 273 273 268 264
214 200 185 221 205 189 212 231 229 220 224 238 192 238 251 186 210 225 215 206 202 194 191 189 180 179 177 176 179 183 186 185 184 192 204 209 213 220 223 236 247 261 264 264
236 221 190 216 245 237 220 237 254 263 260 246 204 236 226 148 217 228 217 204 192 191 190 188 184 183 181 180 183 185 186 191 191 198 208 211 212 226 236 242 252 260 267 271
255 240 168 228 263 251 227 225 257 274 269 259 225 221 225 196 216 217 207 198 190 187 188 189 183 185 184 182 186 191 190 193 195 202 207 213 211 215 228 242 249 261 274 282
265 260 221 187 197 211 280 238 221 243 260 255 242 237 233 207 220 212 209 205 194 185 184 188 187 187 185 184 186 188 195 196 199 203 204 215 214 213 225 241 255 264 275 284
251 252 230 207 226 228 197 214 231 243 259 269 266 249 22 246 226 222 217 210 198 189 186 187 187 185 182 180 182 185 188 191 193 196 199 209 214 215 214 233 258 268 267 274
235 259 254 239 206 303 249 239 234 246 243 249 271 273 107 260 260 245 235 222 205 194 189 187 182 181 181 183 184 188 186 187 189 191 194 206 206 218 227 239 261 270 272 275
205 244 252 222 192 195 230 237 240 250 260 249 252 255 118 267 282 262 249 234 208 192 186 183 181 182 181 183 183 185 192 190 182 184 190 198 205 224 237 249 266 277 283 281
241 246 254 268 292 249 237 234 234 236 247 252 249 267 272 278 282 288 272 246 221 197 186 184 186 187 185 185 184 181 184 181 181 181 185 190 205 222 238 253 270 297 301 293
241 252 253 265 275 264 258 252 238 239 250 260 268 270 282 283 286 289 282 260 228 205 196 195 194 190 187 186 185 180 179 178 183 185 183 193 197 199 249 268 292 304 305 299
244 253 256 254 252 254 259 258 250 246 250 256 266 273 286 287 288 285 280 255 236 222 213 206 202 197 192 189 186 181 177 178 185 186 175 155 200 215 263 312 308 303 298 301
228 246 255 260 258 259 255 249 243 241 241 250 258 267 273 280 285 285 278 258 248 241 225 213 207 201 197 193 186 182 177 175 180 178 170 158 199 240 275 299 306 300 299 303
234 237 255 270 256 251 264 263 248 247 248 248 258 271 277 281 286 283 276 264 260 252 234 220 210 204 197 187 179 173 172 173 171 168 154 152 213 255 301 297 299 306 309 305
236 233 245 255 258 264 259 247 244 244 250 250 256 260 271 289 274 255 275 278 268 263 247 221 208 199 189 178 170 169 170 172 175 172 172 188 222 243 271 286 301 311 310 306
214 228 240 246 256 262 277 20 271 249 249 249 250 251 256 253 257 287 342 281 275 266 226 190 178 181 177 169 167 173 173 175 180 182 197 209 230 241 265 284 303 314 300 296
202 213 229 241 251 262 310 59 197 232 300 22 256 254 248 258 292 330 333 304 267 181 154 154 162 170 172 167 170 178 179 185 185 185 200 205 216 233 255 284 301 307 313 305
235 231 230 236 244 252 122 173 226 305 355 327 294 283 273 279 294 306 308 287 244 163 155 158 160 157 158 171 177 182 188 179 171 178 188 199 204 229 225 284 308 310 310 303
239 248 258 240 259 342 206 234 291 316 299 307 307 296 277 272 276 283 278 259 232 204 185 178 168 160 167 179 189 191 180 163 169 178 190 206 218 245 252 258 275 285 289 292
237 252 250 253 259 272 269 258 273 286 290 297 298 289 271 269 274 277 271 256 240 218 193 182 179 184 183 185 194 193 171 173 181 191 200 217 238 259 266 265 263 269 274 283
267 237 251 257 269 279 266 266 279 286 290 290 292 284 274 272 271 268 263 257 247 228 209 197 197 199 196 189 189 181 174 177 186 195 213 232 241 250 266 278 282 274 279 289
249 244 252 266 282 279 286 292 288 287 289 288 290 288 283 274 267 262 259 256 247 230 218 213 210 208 201 192 186 179 177 183 192 204 222 236 246 254 268 286 297 299 280 295